Weather Roundup
Issued by NWS Springfield, MO

Home | Current Version | Previous Version | Text Only | Print | Product List | Glossary On
Versions: 1 2 3 4 5 6 7 8 9 10 11 12 13 14 15 16 17 18 19 20 21 22 23 24 25 26 27 28 29 30 31 32 33 34 35 36 37 38 39 40 41 42 43 44 45 46 47 48 49 50
000
NZUS99 KSGF 210707
HRRSGF

HOURLY WEATHER
NATIONAL WEATHER SERVICE SPRINGFIELD MO
200 AM CDT SUN SEP 21 2014

......SGF CWA......

CITY           SKY/WX    TMP DP  RH WIND       PRES   REMARKS
SPRINGFIELD    MOCLDY    70  67  90 S6        30.03R
JOPLIN         MOCLDY    75  67  76 SW7       30.03R
WEST PLAINS    CLEAR     69  66  90 W5        30.04R
ROLLA          MOCLDY    70  67  90 SW8       29.97S
OSAGE BEACH    PTCLDY    72  66  83 W5        29.99R
BRANSON        CLEAR     68  66  94 SW3       30.05S

......SURROUNDING SGF CWA......

CITY           SKY/WX    TMP DP  RH WIND       PRES   REMARKS
CHANUTE        CLOUDY    76  69  79 SW8       30.04R
PARSONS        CLOUDY    74  70  87 W3        30.04R
EMPORIA        PTCLDY    67  66  97 W6        30.05R
GROVE OK       MOCLDY    70  70 100 CALM      30.05R
ROGERS AR      CLEAR     70  65  84 SW5       30.07R
SILOAM SPRINGS MOCLDY    68  63  83 S3        30.07R
HARRISON AR    CLEAR     66  65  96 CALM      30.06R
NEAR YELLVILLE CLEAR     72  63  73 S6        30.03R

......KANSAS AND MISSOURI......

CITY           SKY/WX    TMP DP  RH WIND       PRES   REMARKS
KANSAS CTY INT CLEAR     68  64  87 N16G22    30.04R
DOWNTOWN KC    CLEAR     70  67  90 NW5       30.02R
COLUMBIA       CLEAR     71  69  93 W6        29.96S
SEDALIA        CLEAR     72  68  87 W7        29.98S
ST JOSEPH      CLEAR     64  58  80 N10       30.06R
ST LOUIS       MOCLDY    76  68  76 W12       29.91S
SPIRIT OF STL  LGT RAIN  73  69  87 SW8       29.91R
KIRKSVILLE     CLEAR     65  51  60 N18G24    29.99R
WICHITA        CLOUDY    75  69  81 E3        30.06R
TOPEKA         CLEAR     69  65  86 N15       30.04R
OLATHE         CLEAR     69  67  93 W6        30.01R

......TENNESSEE......

CITY           SKY/WX    TMP DP  RH WIND       PRES   REMARKS
MEMPHIS        CLEAR     74  66  76 S6        30.01S
NASHVILLE      PTCLDY    66  64  93 S5        29.99F

......ARKANSAS.......

CITY           SKY/WX    TMP DP  RH WIND       PRES   REMARKS
FAYETTEVILLE   CLEAR     64  64 100 CALM      30.07R FOG
FT SMITH       CLEAR     71  69  93 CALM      30.02S
LITTLE ROCK    PTCLDY    72  67  84 W3        30.01S

......OKLAHOMA.......

CITY           SKY/WX    TMP DP  RH WIND       PRES   REMARKS
TULSA          MOCLDY    77  67  71 S5        30.02R
PONCA CITY     PTCLDY    76  67  73 S3        30.03S
MCALESTER      MOCLDY    68  66  93 CALM      30.05R FOG
OKLAHOMA CITY  PTCLDY    71  66  84 SE6       30.06R

......IOWA............

CITY           SKY/WX    TMP DP  RH WIND       PRES   REMARKS
DES MOINES     CLEAR     59  51  75 W6        30.00S
QUAD CITIES    CLEAR     62  53  72 NW17G23   29.90R

......ILLINOIS........

CITY           SKY/WX    TMP DP  RH WIND       PRES   REMARKS
QUINCY         PTCLDY    71  67  87 NW13      29.92R
CHICAGO        MOCLDY    65  62  90 W10       29.72R



USA.gov is the U.S. government's official web portal to all federal, state and local government web resources and services.